www.pogodaiklimat.ru

Погода и климат >> Архив погоды >> Австралия >> Западная Австралия >> Леинстер


ПОГОДА в Леинстере

  • Прогноз погоды в Леинстере
  • Монитор погоды в Леинстере

АРХИВ ПОГОДЫ в Леинстере

Время (UTC), дата Ветер
(напр.,м/с)
 
Видим.   Явления Облачность Т
(С)
Тd
(С)
f
(%)
Тe
(С)
Тes
(С)
Комфортность P
(гПа)
Po
(гПа)
Тmin
(С)
Tmax
(С)
R
(мм)
R24
(мм)
S
(см)
10 12.06 З 3 н/о н/о +13.4 +3.8 52 +13 +13 1021.8 963.4
12 12.06 ЮЗ 1 н/о н/о +10.4 +4.8 68 +11 +11 1022.6 964.2
13 12.06 ЮЗ 2 н/о н/о +9.7 +5.1 73 +8 +8 1022.9 964.5 +17.1
15 12.06 Ю 1 н/о н/о +8.9 +5.6 80 +9 +9 1022.4 964.0
16 12.06 штиль 0 н/о 1/1 1500 м
[]
+7.6 +5.6 87 +7 +7 1022.3 963.9
18 12.06 З 2 н/о н/о +6.9 +6.5 97 +5 +5 1022.4 964.0
19 12.06 Ю 2 н/о 9/9 1500 м
[]
+6.6 +6.2 97 +5 +5 1021.7 963.3
21 12.06 штиль 0 н/о н/о +6.5 +5.8 95 +5 +5 1021.5 963.1
22 12.06 штиль 0 н/о 1/0
[]
+6.2 +5.8 97 +5 +5 1022.2 963.8
00 13.06 З 1 н/о н/о +9.2 +7.8 91 +9 +9 1023.8 965.3
01 13.06 СЗ 2 н/о н/о +11.7 +6.8 72 +11 +11 1024.5 966.0 +5.9
03 13.06 ЮЗ 1 н/о н/о +14.4 +4.7 52 +15 +15 1024.2 965.7
04 13.06 Ю 1 н/о 10/10 1000 м
[]
+14.4 +5.2 54 +15 +15 1023.6 965.1
06 13.06 Ю 3 н/о н/о +14.7 +2.9 45 +14 +14 1021.5 963.1
07 13.06 ЮЗ 4 н/о 10/10 1500 м
[]
+15.0 +2.9 44 +14 +14 1021.7 963.3
09 13.06 Ю 2 н/о н/о +13.9 +3.1 48 +14 +14 1022.0 963.6
10 13.06 ЮВ 2 н/о н/о +11.8 +3.6 57 +11 +11 1022.5 964.1
12 13.06 штиль 0 н/о н/о +9.4 +3.6 67 +9 +9 1023.3 964.8
13 13.06 З 1 н/о 10/10 1500 м
[]
+8.6 +5.2 79 +8 +8 1023.6 965.1 +15.5
15 13.06 штиль 0 н/о н/о +6.9 +4.4 84 +6 +6 1023.2 964.7
16 13.06 штиль 0 н/о н/о +6.2 +3.9 85 +5 +5 1023.1 964.6
18 13.06 штиль 0 н/о н/о +6.0 +4.2 88 +5 +5 1022.5 964.1
19 13.06 штиль 0 н/о н/о +4.6 +3.6 93 +3 +3 1022.6 964.2
21 13.06 штиль 0 н/о н/о +4.5 +4.1 97 +3 +3 1022.4 964.0
22 13.06 штиль 0 н/о н/о +3.7 +3.3 97 +2 +2 1022.8 964.4
00 14.06 ЮВ 2 н/о н/о +7.2 +5.8 91 +5 +5 1023.6 965.1
01 14.06 В 2 н/о н/о +12.7 +4.7 58 +12 +12 1023.9 965.4 +3.3
03 14.06 СВ 2 н/о н/о +15.6 +3.1 43 +16 +16 1023.6 965.1
04 14.06 ЮЗ 2 н/о н/о +15.4 +2.6 42 +16 +16 1022.7 964.3
06 14.06 Ю 3 н/о н/о +16.4 +0.9 35 +16 +16 1020.7 962.4
07 14.06 ЮВ 2 н/о н/о +16.8 +0.9 34 +17 +17 1020.7 962.4
09 14.06 Ю 3 н/о н/о +15.8 +1.2 37 +15 +15 1020.5 962.2
10 14.06 Ю 3 н/о н/о +13.7 +1.4 43 +13 +13 1021.2 962.9
12 14.06 ЮЗ 1 н/о н/о +10.1 +2.2 58 +11 +11 1022.6 964.2
13 14.06 ЮЗ 1 н/о н/о +8.8 +1.9 62 +8 +8 1022.6 964.2 +17.5
15 14.06 штиль 0 н/о н/о +7.7 +2.4 69 +7 +7 1022.3 963.9
16 14.06 штиль 0 н/о н/о +7.8 +2.3 68 +7 +7 1022.3 963.9
18 14.06 ЮЗ 1 н/о н/о +7.5 +2.6 71 +7 +7 1022.4 964.0
19 14.06 ЮЗ 1 н/о н/о +6.9 +3.0 76 +6 +6 1022.2 963.8
21 14.06 ЮЗ 1 н/о н/о +7.0 +3.4 78 +6 +6 1022.7 964.3
22 14.06 штиль 0 н/о н/о +6.0 +3.2 82 +5 +5 1023.2 964.7
00 15.06 СЗ 2 н/о н/о +9.2 +3.8 69 +8 +8 1024.3 965.8
01 15.06 З 2 н/о н/о +12.0 +4.5 60 +11 +11 1025.3 966.7 +4.9
03 15.06 ЮЗ 3 н/о н/о +15.4 +4.5 48 +15 +15 1024.5 966.0
04 15.06 Ю 4 н/о н/о +16.5 +5.5 48 +16 +16 1023.8 965.3
06 15.06 ЮЗ 4 н/о н/о +17.7 +4.3 41 +18 +18 1022.5 964.1
07 15.06 ЮЗ 4 н/о н/о +17.6 +4.9 43 +17 +17 1022.4 964.0
09 15.06 Ю 4 н/о н/о +16.3 +4.4 45 +16 +16 1022.8 964.4
10 15.06 Ю 3 н/о н/о +14.5 +4.5 51 +14 +14 1023.4 964.9
12 15.06 ЮЗ 2 н/о н/о +10.6 +3.9 63 +10 +10 1024.4 965.9
13 15.06 штиль 0 н/о н/о +9.5 +3.5 66 +9 +9 1024.6 966.1 +18.3
15 15.06 Ю 1 н/о н/о +7.6 +3.3 74 +8 +8 1024.4 965.9
16 15.06 Ю 2 н/о н/о +8.0 +3.5 73 +7 +7 1024.2 965.7
18 15.06 штиль 0 н/о н/о +5.7 +4.2 90 +5 +5 1024.1 965.6
19 15.06 ЮВ 2 н/о н/о +5.5 +4.5 93 +3 +3 1024.0 965.5
21 15.06 Ю 1 н/о н/о +4.0 +3.6 97 +4 +4 1024.3 965.8
22 15.06 ЮВ 3 н/о н/о +5.6 +5.3 98 +2 +2 1024.6 966.1
00 16.06 В 2 н/о н/о +8.0 +7.1 94 +6 +6 1026.2 967.6
01 16.06 В 4 н/о н/о +11.2 +6.9 75 +9 +9 1026.2 967.6 +3.4
03 16.06 СВ 2 н/о н/о +16.1 +6.8 54 +16 +16 1025.8 967.2
04 16.06 ЮЗ 2 н/о н/о +15.3 +5.2 51 +15 +15 1024.9 966.3
06 16.06 ЮВ 3 н/о н/о +17.1 +4.4 43 +17 +17 1022.9 964.5
07 16.06 З 2 н/о н/о +17.8 +4.0 40 +19 +19 1022.7 964.3
09 16.06 ЮЗ 3 н/о н/о +16.4 +3.1 41 +16 +16 1023.3 964.8
10 16.06 Ю 3 н/о 8/0
[]
+14.8 +3.9 48 +14 +14 1023.9 965.4
12 16.06 Ю 4 н/о н/о +13.3 +3.4 51 +12 +12 1025.1 966.5
13 16.06 Ю 3 н/о 9/0
[]
+12.2 +3.9 57 +11 +11 1025.0 966.4 +18.5
15 16.06 Ю 3 н/о н/о +10.7 +4.0 63 +9 +9 1025.1 966.5
16 16.06 Ю 4 н/о 10/0
[]
+11.2 +4.0 61 +9 +9 1024.5 966.0
18 16.06 Ю 3 н/о н/о +10.3 +3.6 63 +8 +8 1024.6 966.1
19 16.06 ЮВ 3 н/о 10/0
[]
+9.4 +3.6 67 +8 +8 1024.3 965.8
21 16.06 ЮВ 2 н/о н/о +7.5 +3.7 77 +6 +6 1024.7 966.2
22 16.06 Ю 1 н/о н/о +6.0 +3.2 82 +6 +6 1025.4 966.8
00 17.06 ЮВ 3 н/о н/о +9.2 +3.4 67 +7 +7 1026.3 967.7
01 17.06 ЮВ 6 н/о н/о +12.2 +3.4 55 +10 +10 1026.9 968.2 +5.6
03 17.06 ЮВ 6 н/о н/о +15.8 +2.9 42 +15 +15 1026.0 967.4
04 17.06 ЮВ 7 н/о н/о +16.1 +2.9 41 +15 +15 1025.4 966.8
06 17.06 В 6 н/о н/о +17.9 +3.0 37 +17 +17 1023.7 965.2
07 17.06 В 4 н/о н/о +18.1 +2.4 35 +18 +18 1023.5 965.0
09 17.06 ЮВ 5 н/о н/о +16.5 +1.8 37 +16 +16 1023.9 965.4
10 17.06 ЮВ 3 н/о н/о +14.8 +1.3 40 +14 +14 1024.2 965.7
12 17.06 ЮВ 3 н/о н/о +12.1 +2.0 50 +11 +11 1025.2 966.6
13 17.06 ЮВ 3 н/о н/о +11.0 +2.8 57 +9 +9 1025.4 966.8 +18.5
15 17.06 ЮВ 4 н/о н/о +9.7 +3.4 65 +7 +7 1025.3 966.7
16 17.06 ЮВ 3 н/о н/о +8.4 +3.3 70 +6 +6 1025.2 966.6
18 17.06 В 3 н/о н/о +7.1 +3.0 75 +5 +5 1025.3 966.7
19 17.06 В 3 н/о н/о +6.6 +2.9 77 +4 +4 1024.6 966.1
21 17.06 СВ 2 н/о н/о +4.6 +2.1 84 +2 +2 1024.6 966.1
22 17.06 В 2 н/о н/о +4.4 +2.9 90 +2 +2 1025.0 966.4
00 18.06 В 3 н/о н/о +7.1 +3.0 75 +5 +5 1026.0 967.4
01 18.06 В 7 н/о н/о +11.2 +4.9 65 +8 +8 1026.0 967.4 +1.9
03 18.06 В 6 н/о н/о +14.4 +4.4 51 +13 +13 1025.2 966.6
04 18.06 СВ 4 н/о н/о +16.0 +4.1 45 +15 +15 1024.0 965.5
06 18.06 В 4 н/о н/о +17.5 +2.7 37 +17 +17 1021.9 963.5
07 18.06 В 3 н/о н/о +17.3 +2.1 36 +17 +17 1021.9 963.5
09 18.06 ЮВ 4 н/о н/о +15.6 +1.7 39 +15 +15 1021.9 963.5
10 18.06 ЮВ 3 н/о н/о +13.6 +1.6 44 +13 +13 1022.2 963.8
12 18.06 ЮВ 3 н/о н/о +10.9 +1.4 52 +9 +9 1022.5 964.1
13 18.06 В 3 н/о н/о +9.2 +1.1 57 +7 +7 1022.5 964.1 +17.9
15 18.06 В 2 н/о н/о +7.2 +1.1 65 +5 +5 1022.6 964.2
16 18.06 ЮВ 2 н/о н/о +6.6 +0.9 67 +5 +5 1022.5 964.1
18 18.06 В 2 н/о н/о +5.9 +0.7 69 +4 +4 1022.2 963.8
19 18.06 В 2 н/о н/о +5.0 +0.4 72 +3 +3 1021.9 963.5
21 18.06 В 3 н/о н/о +3.7 +0.4 79 0 0 1022.0 963.6
22 18.06 В 3 н/о н/о +3.3 +0.2 80 -0 -0 1022.6 964.2
00 19.06 СВ 3 н/о н/о +6.3 +0.4 66 +3 +3 1023.6 965.1
01 19.06 СВ 5 н/о н/о +10.1 +1.0 53 +7 +7 1023.7 965.2 +3.2
03 19.06 В 5 н/о н/о +14.4 +1.7 42 +13 +13 1022.4 964.0
06 19.06 В 5 н/о н/о +17.9 +1.8 34 +18 +18 1019.2 961.0
07 19.06 В 5 н/о н/о +17.8 +1.7 34 +17 +17 1019.0 960.8
09 19.06 В 4 н/о н/о +16.9 +1.4 35 +17 +17 1018.9 960.7
10 19.06 В 3 н/о н/о +15.0 +1.2 39 +15 +15 1019.2 961.0

 

Местоположение метеостанции Леинстер (Западная Австралия, Австралия): широта -27.85 долгота 120.70 высота над уровнем моря 498 м.

В архиве по умолчанию представлена погода в Леинстере за последнюю неделю. Архивные данные за месяц целиком и за предыдущие месяцы, начиная с января 2011 года, Вы можете получить, выбрав интересующий диапазон дат из раскрывающегося списка и нажав кнопку "Ввод!".


*Определитесь, кто Вы:
робот инопланетянин человек

Внимание! Время в таблицах - всемирное. Для получения местного времени необходимо прибавить поправку, которая равна 8 ч.

Смотрите также архив погоды в соседних городах и на ближайших метеорологических станциях:

Погода в Леонора аэропорту (Западная Австралия, Австралия) (130 км)
Погода в Лавертоне (Западная Австралия, Австралия) (188 км)
Погода в Микатарре (Западная Австралия, Австралия) (253 км)
Погода в Маунт Магнет аэропорту (Западная Австралия, Австралия) (283 км)
Погода в Калгурли-Боулдере (Западная Австралия, Австралия) (334 км)
Погода в Саутерн Кросс (Западная Австралия, Австралия) (398 км)
Погода в Дауоллину (Западная Австралия, Австралия) (476 км)
Погода в Мораве (Западная Австралия, Австралия) (481 км)
Погода в Норсмане (Западная Австралия, Австралия) (496 км)
Погода в Ньюмане (Западная Австралия, Австралия) (502 км)

Пояснения к столбцам:

Ветер - указаны скорость ветра в м/с - средняя за 10 мин, порывы в срок и между сроками (в фигурных скобках) и направление, откуда дует ветер: С - северный, СВ - северо-восточный, В - восточный, ЮВ - юго-восточный, Ю - южный, ЮЗ - юго-западный, З - западный, СЗ - северо-западный.
Видимость - горизонтальная дальность видимости в метрах или километрах. При видимости от 1 до 10 км при отсутствии осадков обычно наблюдается дымка, при ухудшении видимости до 1 км и менее - туман. В сухую погоду видимость может ухудшаться дымом, пылью или мглою.
Явления - указаны атмосферные явления, наблюдавшиеся в срок или в последний час перед сроком; фигурными скобками обозначены явления, наблюдавшиеся между сроками (за 1-3 часа до срока); квадратными скобками обозначены град или гололедные отложения с указанием их диаметра в мм.
Облачность - указаны через наклонную черту общая и нижняя облачность в баллах и высота нижней границы облаков в метрах; квадратными скобками обозначены формы облаков: Ci - перистые, Cs - перисто-слоистые, Cc - перисто-кучевые, Ac - высококучевые, As - высокослоистые, Sc - слоисто-кучевые, Ns - слоисто-дождевые, Cu - кучевые, Cb - кучево-дождевые. Подробнее классификацию облаков см. в Атласе облаков (PDF).
T - Температура воздуха - температура, измеренная на высоте 2 м над землей.
Td - Температура точки росы - температура, при понижении до которой содержащийся в воздухе водяной пар достигнет насыщения.
f - Относительная влажность воздуха - влажноcть воздуха, измеренная на высоте 2 м над землей.
Te - Эффективная температура - температура, которую ощущает одетый по сезону человек в тени. Характеристика душности погоды. При расчете учитывается влияние влажности воздуха и скорости ветра на теплоощущения человека.
Tes - Эффективная температура на солнце - температура, которую ощущает человек, с поправкой на солнечный нагрев. Характеристика знойности погоды. Зависит от высоты солнца над горизонтом, облачности и скорости ветра. Ночью, в пасмурную погоду, а также при ветре 12 м/с и более поправка равна нулю.
P - Атмосферное давление - приведенное к уровню моря атмосферное давление.
Po - Атмосферное давление - измеренное на уровне метеостанции атмосферное давление.
Tmin - Минимальная температура - минимум температуры воздуха на высоте 2 м над землей.
Tmax - Максимальная температура - максимум температуры воздуха на высоте 2 м над землей.
R - Количество осадков - Количество выпавших осадков за период времени, мм. При наведении курсора мыши на число - период времени, за который выпало указанное количество осадков.
R24 - Количество осадков - Количество выпавших осадков за 24 часа, мм.
S - Снежный покров - Высота снежного покрова, см. При наведении курсора мыши на число - состояние снежного покрова и степень покрытия местности в баллах.